Regional Weather Roundup
Issued by NWS

Home | Current Version | Previous Version | Graphics & Text | Print | Product List | Glossary On
Versions: 1 2 3 4 5 6 7 8 9 10 11 12 13 14 15 16 17 18 19 20 21 22 23 24 25 26 27 28 29 30 31 32 33 34 35 36 37 38 39 40 41 42 43 44 45 46 47 48 49 50
000
ASUS43 KDTX 022101
RWRMI
MICHIGAN HOURLY REGIONAL WEATHER ROUNDUP
NATIONAL WEATHER SERVICE DETROIT/PONTIAC MI
500 PM EDT TUE SEP 02 2014

NOTE: "FAIR" INDICATES FEW OR NO CLOUDS BELOW 12,000 FEET WITH NO
SIGNIFICANT WEATHER AND/OR OBSTRUCTION TO VISIBILITY.

MIZ047>049-052>055-059>063-066>070-074>076-081>083-022200-
SOUTHEAST LOWER MICHIGAN

CITY           SKY/WX    TMP DP  RH WIND       PRES   REMARKS
ADRIAN         PTSUNNY   79  64  60 N9        29.90S
ALMA           MOSUNNY   78  52  41 NW9       29.89R
ANN ARBOR      MOSUNNY   79  58  48 NW12      29.89R
BAD AXE        MOSUNNY   76  58  52 W13       29.87R
CARO           SUNNY     76  60  56 W8        29.87R
DETROIT CITY   MOSUNNY   82  61  48 NW9       29.87R
DETROIT        PTSUNNY   79  63  57 W12       29.89R
FLINT          MOSUNNY   80  57  45 NW13      29.88R
GROSSE ILE     MOSUNNY   77  68  73 W7        29.87R
HILLSDALE      MOSUNNY   76  62  60 NW7       29.92S
HOWELL         SUNNY     75  58  55 W7        29.90R

CITY           SKY/WX    TMP DP  RH WIND       PRES   REMARKS
JACKSON        SUNNY     77  61  57 VRB5      29.90S
LAMBERTVILLE   PTSUNNY   79  63  57 W8        29.89F
LANSING        PTSUNNY   75  59  57 W7        29.90R
LAPEER         FAIR      77  57  50 W12       29.89R
MASON          MOSUNNY   77  58  53 W10       29.90S
MONROE         MOSUNNY   79  66  65 W8        29.87R
MT. CLEMENS    MOSUNNY   79  55  43 NW10      29.85R
PONTIAC        MOSUNNY   77  57  50 NW14      29.89R
PORT HOPE        N/A     78  58  49 VRB7      29.84R
PORT HURON     PTSUNNY   77  61  57 W8        29.86R
TRI CITIES     MOSUNNY   80  56  43 W10       29.88R
TROY           SUNNY     80  53  38 W10G21    29.90R
SAGINAW HB     MOSUNNY   79  52  38 NW9       29.87R
$$
MIZ043>046-050>051-056>058-064>065-071>073-077>080-022200-
SOUTHWEST LOWER MICHIGAN

CITY           SKY/WX    TMP DP  RH WIND       PRES   REMARKS
BATTLE CREEK   PTSUNNY   77  59  53 W13       29.92R
BENTON HARBOR  SUNNY     76  60  57 NW5       29.91F
BIG RAPIDS     PTSUNNY   74  58  55 NW9       29.89S
COLDWATER      MOSUNNY   80  62  54 W8        29.91F
FREMONT        FAIR      78  45  30 W10       29.89S
HOLLAND        SUNNY     78  61  55 W8        29.92S
GRAND RAPIDS   MOSUNNY   79  58  48 W13       29.90S
IONIA          FAIR      78  53  42 W10       29.89R
KALAMAZOO      MOSUNNY   79  58  48 NW13      29.91S
LUDINGTON      SUNNY     74  62  64 SW8       29.90S
MARSHALL       PTSUNNY   77  62  59 W12G20    29.90S
MOUNT PLEASANT MOSUNNY   78  53  41 W7        29.88R
MUSKEGON       PTSUNNY   77  56  48 VRB7      29.91S
SOUTH HAVEN    SUNNY     77  65  65 W7        29.91F
$$
MIZ016>042-022200-
NORTHERN LOWER MICHIGAN

CITY           SKY/WX    TMP DP  RH WIND       PRES   REMARKS
ALPENA         PTSUNNY   74  53  48 W8G16     29.84R
BEAVER ISLAND  PTSUNNY   71  59  66 SW14      29.83S
BELLAIRE       CLOUDY    73  55  53 SW3       29.85S
CADILLAC       PTSUNNY   73  57  57 W7        29.90R
CHARLEVOIX     CLOUDY    72  59  62 W13       29.88S
FRANKFORT      MOSUNNY   72  61  68 SW7       29.88R
GAYLORD        PTSUNNY   71  51  49 W9        29.87S
GRAYLING       CLOUDY    74  54  49 W13       29.88S
HARBOR SPRINGS CLOUDY    73  56  55 W8        29.84F
HOUGHTON LAKE  PTSUNNY   74  55  51 W12       29.89R
MANISTEE       MOSUNNY   75  55  50 W9        29.89S
OSCODA         PTSUNNY   74  53  47 W7        29.84R
PELLSTON       CLOUDY    72  56  57 W8        29.84F
ROGERS CITY    PTSUNNY   73  55  53 W9G18     29.84S
TRAVERSE CITY  PTSUNNY   76  53  44 W10       29.85S
$$
MIZ007>008-015-022200-
EASTERN UPPER MICHIGAN

CITY           SKY/WX    TMP DP  RH WIND       PRES   REMARKS
KINROSS        CLOUDY    70  57  64 SW9G17    29.81S
MACKINAC ISLAN CLOUDY    67  60  80 SW13      29.83S
NEWBERRY       CLOUDY    73  55  54 SW8       29.80F
S. S. MARIE    CLOUDY    69  57  65 NW6       29.80S
$$
MIZ004>006-011>014-085-022200-
CENTRAL UPPER MICHIGAN

CITY           SKY/WX    TMP DP  RH WIND       PRES   REMARKS
MANISTIQUE     MOSUNNY   70  62  73 SW13      29.81S
ESCANABA       SUNNY     75  52  43 W13       29.81S
MENOMINEE      SUNNY     75  59  57 W5        29.83F
SAWYER-GWINN   MOSUNNY   73  45  35 W10G18    29.83R
$$
MIZ001>003-009>011-084-022200-
WESTERN UPPER MICHIGAN

CITY           SKY/WX    TMP DP  RH WIND       PRES   REMARKS
IRON MOUNTAIN  MOSUNNY   76  50  40 W10       29.83S
HOUGHTON       PTSUNNY   71  49  45 W16       29.81S
COPPER HARBOR    N/A     74  48  39 NW10G21   29.78R
$$

ABBREVIATIONS USED IN REMARKS
   TC - TEMPERATURE IN CELSIUS
  WCI - WIND CHILL INDEX
   HX - HEAT INDEX
  VSB - VISIBILITY



USA.gov is the U.S. government's official web portal to all federal, state and local government web resources and services.